Location: New Canada
(47.1017°N, 68.5042°W)
Time: 16:58:04
(UTC+00:00)

KKS-1 - Pass Details

Date: 26 April 2024
Orbit: 628 x 639 km, 98.1° (Epoch: 21 May)

Event Time Altitude Azimuth Distance (km) Brightness Sun altitude
Rises 04:46:34 0° 5° (N) 2,958 ? -29.1°
Reaches altitude 10° 04:48:58 10° 355° (N) 2,044 ? -29.1°
Enters shadow 04:52:19 29° 308° (NW) 1,168 ? -29.0°
